Change the Weather History Date:

Saturday, August 30, 2014

  Actual Average (KSAT) Record (KSAT)
Temperature  
Mean Temperature 82 °F 84 °F  
Max Temperature 95 °F 95 °F 103 °F (1901)
Min Temperature 69 °F 74 °F 59 °F (1893)
Degree Days  
Heating Degree Days 0 0  
Month to date heating degree days 0  
Since 1 June heating degree days 0  
Since 1 July heating degree days 0  
Cooling Degree Days 17 19  
Month to date cooling degree days 616  
Year to date cooling degree days 2376  
Since 1 June cooling degree days 1747  
Growing Degree Days 32 (Base 50)    
Moisture  
Dew Point 65 °F    
Average Humidity 62    
Maximum Humidity 93    
Minimum Humidity 31    
Precipitation  
Precipitation 0.00 in 0.11 in 2.04 in (2001)
Month to date precipitation 1.99  
Year to date precipitation 20.84  
Snow  
Snow 0.00 in - - ()
Month to date snowfall  
Since 1 June snowfall  
Since 1 July snowfall  
Snow Depth -    
Sea Level Pressure  
Sea Level Pressure 29.96 in    
Wind  
Wind Speed 3 mph (SE)    
Max Wind Speed 13 mph    
Max Gust Speed 20 mph    
Visibility 10 miles    
Events Rain , Thunderstorm    
T = Trace of Precipitation, MM = Missing Value Source: NWS Daily Summary

Daily Weather History Graph

Daily Weather History Graph

Search for Another Location

Airport or City:

Trip Planner

Search our weather history database for the weather conditions in past years. The results will help you decide how hot, cold, wet, or windy it might be!

Date:

Astronomy

Aug. 30, 2014 Rise Set
Actual Time 7:11 AM CDT 8:00 PM CDT
Civil Twilight 6:46 AM CDT 8:25 PM CDT
Nautical Twilight 6:17 AM CDT 8:53 PM CDT
Astronomical Twilight 5:48 AM CDT 9:23 PM CDT
Moon 11:37 AM CDT (8/30) 10:59 PM CDT (8/30)
Length of Visible Light 13h 38m
Length of Day
12h 49m
Waxing Crescent, 23% of the Moon is Illuminated
Aug 30
Waxing Crescent
Sep 2
First Quarter
Sep 8
Full
Sep 15
Last Quarter
Sep 24
New

Hourly Weather History & Observations

Time (CDT) Temp. Heat Index Dew Point Humidity Pressure Visibility Wind Dir Wind Speed Gust Speed Precip Events Conditions
12:15 AM 75.7 °F - 66.0 °F 72% 29.96 in 10.0 mi SE 4.6 mph - N/A   Clear
12:35 AM 75.2 °F - 66.2 °F 73% 29.96 in 10.0 mi ESE 3.5 mph - N/A   Clear
12:55 AM 74.5 °F - 66.4 °F 76% 29.97 in 10.0 mi Calm Calm - N/A   Clear
1:15 AM 74.1 °F - 66.6 °F 77% 29.97 in 10.0 mi ESE 3.5 mph - N/A   Clear
1:35 AM 73.6 °F - 66.6 °F 79% 29.97 in 10.0 mi Calm Calm - N/A   Clear
1:55 AM 73.4 °F - 66.7 °F 80% 29.98 in 10.0 mi Calm Calm - N/A   Clear
2:15 AM 73.0 °F - 66.7 °F 81% 29.98 in 10.0 mi Calm Calm - N/A   Scattered Clouds
2:35 AM 73.4 °F - 67.6 °F 82% 29.97 in 10.0 mi SSE 3.5 mph - N/A   Scattered Clouds
2:55 AM 73.9 °F - 68.5 °F 83% 29.98 in 10.0 mi SSE 4.6 mph - N/A   Mostly Cloudy
3:15 AM 73.9 °F - 68.9 °F 84% 29.98 in 10.0 mi SSE 3.5 mph - N/A   Mostly Cloudy
3:35 AM 74.3 °F - 69.1 °F 84% 29.98 in 10.0 mi SSE 3.5 mph - N/A   Mostly Cloudy
3:55 AM 73.6 °F - 69.1 °F 86% 29.98 in 10.0 mi SSE 3.5 mph - N/A   Mostly Cloudy
4:15 AM 73.4 °F - 68.9 °F 86% 29.98 in 10.0 mi Calm Calm - N/A   Scattered Clouds
4:35 AM 72.9 °F - 68.9 °F 87% 29.98 in 10.0 mi Calm Calm - N/A   Scattered Clouds
4:55 AM 72.0 °F - 68.5 °F 89% 29.98 in 10.0 mi Calm Calm - N/A   Scattered Clouds
5:35 AM 73.0 °F - 69.1 °F 87% 29.97 in 10.0 mi Calm Calm - N/A   Overcast
5:55 AM 72.5 °F - 69.1 °F 89% 29.96 in 10.0 mi Calm Calm - N/A   Scattered Clouds
6:15 AM 71.8 °F - 68.7 °F 90% 29.96 in 10.0 mi Calm Calm - N/A   Clear
6:35 AM 71.6 °F - 68.5 °F 90% 29.97 in 10.0 mi Calm Calm - N/A   Scattered Clouds
6:55 AM 70.7 °F - 68.2 °F 92% 29.97 in 10.0 mi Calm Calm - N/A   Scattered Clouds
7:15 AM 69.8 °F - 67.6 °F 93% 29.98 in 10.0 mi Calm Calm - N/A   Scattered Clouds
7:35 AM 70.9 °F - 68.7 °F 93% 29.98 in 10.0 mi Calm Calm - N/A   Clear
7:55 AM 72.5 °F - 69.1 °F 89% 29.98 in 10.0 mi Calm Calm - N/A   Clear
8:15 AM 73.8 °F - 69.3 °F 86% 29.98 in 10.0 mi SW 3.5 mph - N/A   Clear
8:35 AM 74.5 °F - 69.3 °F 84% 29.99 in 10.0 mi SW 4.6 mph - N/A   Clear
8:55 AM 75.6 °F - 69.6 °F 82% 29.99 in 10.0 mi WSW 4.6 mph - N/A   Clear
9:15 AM 76.6 °F - 69.4 °F 78% 29.99 in 10.0 mi Calm Calm - N/A   Clear
9:35 AM 78.8 °F - 68.9 °F 72% 29.99 in 10.0 mi Calm Calm - N/A   Clear
9:55 AM 80.1 °F 82.7 °F 68.4 °F 67% 29.99 in 10.0 mi WSW 3.5 mph - N/A   Clear
10:15 AM 81.3 °F 84.1 °F 68.2 °F 64% 30.00 in 10.0 mi WSW 3.5 mph - N/A   Clear
10:35 AM 82.6 °F 85.3 °F 67.6 °F 60% 30.00 in 10.0 mi Calm Calm - N/A   Clear
10:55 AM 83.1 °F 85.7 °F 66.7 °F 58% 30.00 in 10.0 mi Calm Calm - N/A   Clear
11:15 AM 85.6 °F 87.9 °F 66.2 °F 52% 30.00 in 10.0 mi East 3.5 mph - N/A   Clear
11:35 AM 86.2 °F 88.2 °F 65.5 °F 50% 30.00 in 10.0 mi ENE 4.6 mph - N/A   Clear
11:55 AM 88.7 °F 89.1 °F 62.1 °F 41% 29.99 in 10.0 mi East 4.6 mph - N/A   Clear
12:15 PM 89.8 °F 90.0 °F 61.5 °F 39% 29.99 in 10.0 mi NE 5.8 mph - N/A   Scattered Clouds
12:35 PM 90.1 °F 90.2 °F 61.3 °F 38% 29.99 in 10.0 mi East 3.5 mph - N/A   Clear
12:55 PM 89.2 °F 89.3 °F 61.2 °F 39% 29.98 in 10.0 mi Calm Calm - N/A   Scattered Clouds
1:15 PM 91.9 °F 92.2 °F 61.2 °F 36% 29.97 in 10.0 mi SE 6.9 mph - N/A   Scattered Clouds
1:35 PM 90.1 °F 90.2 °F 61.2 °F 38% 29.97 in 10.0 mi Calm Calm - N/A   Scattered Clouds
1:55 PM 93.7 °F 93.7 °F 60.8 °F 33% 29.96 in 10.0 mi East 5.8 mph - N/A   Scattered Clouds
2:15 PM 93.4 °F 93.2 °F 60.4 °F 33% 29.95 in 10.0 mi NE 4.6 mph - N/A   Scattered Clouds
3:15 PM 94.5 °F 94.4 °F 60.1 °F 32% 29.93 in 10.0 mi East 6.9 mph - N/A   Scattered Clouds
3:35 PM 93.0 °F 92.7 °F 59.9 °F 33% 29.92 in 10.0 mi ESE 8.1 mph - N/A   Scattered Clouds
3:55 PM 92.7 °F 91.8 °F 59.0 °F 32% 29.91 in 10.0 mi East 6.9 mph - N/A   Mostly Cloudy
4:15 PM 93.4 °F 92.8 °F 59.2 °F 32% 29.91 in 10.0 mi East 3.5 mph - N/A   Scattered Clouds
4:35 PM 95.2 °F 95.1 °F 59.9 °F 31% 29.90 in 10.0 mi East 9.2 mph - N/A   Scattered Clouds
4:55 PM 94.3 °F 94.1 °F 59.9 °F 32% 29.90 in 10.0 mi ESE 9.2 mph - N/A   Scattered Clouds
5:15 PM 93.6 °F 93.4 °F 60.1 °F 33% 29.90 in 10.0 mi East 9.2 mph - N/A   Mostly Cloudy
5:35 PM 93.4 °F 93.2 °F 60.3 °F 33% 29.90 in 10.0 mi East 10.4 mph 16.1 mph N/A   Mostly Cloudy
5:55 PM 92.3 °F 92.3 °F 61.0 °F 35% 29.89 in 10.0 mi East 12.7 mph 19.6 mph N/A   Scattered Clouds
6:15 PM 90.5 °F 90.1 °F 60.3 °F 36% 29.91 in 10.0 mi SE 6.9 mph - N/A   Clear
6:35 PM 89.8 °F 90.0 °F 61.9 °F 39% 29.91 in 10.0 mi East 8.1 mph - N/A   Scattered Clouds
6:55 PM 89.1 °F 89.3 °F 62.1 °F 40% 29.91 in 10.0 mi SSE 9.2 mph - N/A Thunderstorm Scattered Clouds
7:15 PM 88.7 °F 88.8 °F 61.7 °F 40% 29.92 in 10.0 mi SE 8.1 mph - N/A   Mostly Cloudy
7:35 PM 88.2 °F 88.4 °F 61.7 °F 41% 29.92 in 10.0 mi SE 8.1 mph - N/A Thunderstorm Mostly Cloudy
7:55 PM 87.4 °F 87.7 °F 62.1 °F 42% 29.93 in 10.0 mi SE 6.9 mph - N/A Thunderstorm Mostly Cloudy
8:15 PM 87.1 °F 87.5 °F 62.2 °F 43% 29.95 in 10.0 mi SE 4.6 mph - N/A   Mostly Cloudy
8:35 PM 84.6 °F 86.3 °F 65.1 °F 52% 29.97 in 10.0 mi West 9.2 mph - N/A   Overcast
8:55 PM 81.7 °F 84.0 °F 66.4 °F 60% 29.97 in 10.0 mi West 4.6 mph - N/A   Mostly Cloudy
9:15 PM 81.9 °F 84.1 °F 66.4 °F 59% 29.97 in 10.0 mi Calm Calm - N/A   Scattered Clouds
9:35 PM 80.2 °F 82.8 °F 68.0 °F 66% 29.97 in 10.0 mi SW 4.6 mph - N/A Rain Light Rain
9:55 PM 78.3 °F - 69.1 °F 73% 29.98 in 10.0 mi Calm Calm - N/A   Scattered Clouds
10:15 PM 78.8 °F - 68.7 °F 71% 29.99 in 10.0 mi Calm Calm - N/A   Scattered Clouds
10:35 PM 80.8 °F 83.2 °F 66.9 °F 63% 30.00 in 10.0 mi Calm Calm - N/A   Mostly Cloudy
10:55 PM 82.0 °F 84.3 °F 66.2 °F 59% 29.99 in 10.0 mi SSE 4.6 mph - N/A   Scattered Clouds
11:15 PM 81.9 °F 84.4 °F 67.1 °F 61% 29.98 in 10.0 mi SSE 6.9 mph - N/A   Clear
11:35 PM 81.5 °F 84.1 °F 67.5 °F 62% 29.99 in 10.0 mi SSE 6.9 mph - N/A   Clear
11:55 PM 81.0 °F 83.4 °F 67.5 °F 63% 29.99 in 10.0 mi South 12.7 mph - N/A   Clear